SCP
0 0 0 0 0 0 0 0 0 0 0 0 0 0 0 0 0 0 0 0 -0 -0 -0 -0 0 0 0 0 0 0 0 0 0 0 0 0 0 0 0 0 0 0 0
0 0 0 0 0 0 0 0 0 0 0 0 0 0 0 0 0 0 0 0 0 -0 -0 -0 -0 0 0 0 0 0 0 0 0 0 0 0 0 0 0 0 0 0 0
0 0 0 0 0 0 0 0 0 0 0 0 0 0 0 0 0 0 0 0 0 -0 0 -0 -0 -0 -0 0 0 0 0 0 0 0 0 0 0 0 0 0 0 0 0
0 0 0 0 0 0 0 0 0 0 0 0 0 0 0 0 0 0 0 0 0 0 0 0 -0 -0 -0 -0 0 0 0 0 0 0 0 0 0 0 0 0 0 0 0
0 0 0 0 0 0 0 0 0 0 0 0 0 0 0 0 0 0 0 0 0 0 -0 0 -0 -0 -0 -0 0 0 0 0 0 0 0 0 0 0 0 0 0 0 0
0 0 0 0 0 0 0 0 0 0 0 0 0 0 0 0 0 0 0 0 0 0 -0 0 -0 -0 -0 -0 -0 -0 -0 0 0 0 0 0 0 0 0 0 0 0 0
0 0 0 0 0 0 0 0 0 0 0 0 0 0 0 0 0 0 0 0 0 0 0 -0 0 -0 -0 -0 -0 -0 -0 -0 -0 0 0 0 0 0 -0 -0 0 0 0
0 0 0 0 0 0 0 0 0 0 0 0 0 0 0 0 0 0 0 0 0 0 0 0 -0 -0 -0 -0 -0 -0 -0 -0 -0 0 0 0 0 -0 -0 0 0 0 0
0 0 0 0 0 0 0 0 0 0 0 0 0 0 0 0 0 0 0 0 0 0 0 0 0 0 -0 -0 -0 -0 -0 0 0 0 0 0 0 0 0 0 0 0 0
0 0 0 0 0 0 0 0 0 0 0 0 0 0 0 0 0 0 0 0 0 0 0 0 0 0 0 -0 -0 -0 -0 -0 0 0 0 0 0 0 0 0 0 0 0
0 0 0 0 0 0 0 0 0 0 0 0 0 0 0 0 0 0 0 0 0 0 0 0 0 0 0 0 0 -0 -0 -0 -0 0 0 0 0 0 0 0 0 0 0
0 0 0 0 0 0 0 0 0 0 0 0 0 0 0 0 0 0 0 0 0 0 0 0 0 0 0 0 0 0 0 0 0 0 -0 0 -0 -0 -0 -0 0 0 0
0 0 0 0 0 0 0 0 0 0 0 0 0 0 0 0 0 0 0 0 0 0 0 0 0 0 0 0 0 0 0 0 0 -0 0 0 0 0 0 0 0 0 0
0 0 0 0 0 0 0 0 0 0 0 0 0 0 0 0 0 0 0 0 0 0 0 0 0 0 0 0 0 0 0 0 0 0 0 0 0 0 0 0 0 0 0
0 0 0 0 0 0 0 0 0 0 0 0 0 0 0 0 0 0 0 0 0 0 0 0 0 0 0 0 0 0 0 0 0 0 0 0 0 0 0 0 0 0 -0
0 0 0 0 0 0 0 0 0 0 0 0 0 0 0 0 0 0 0 0 0 0 0 0 0 -0 -0 0 0 0 0 0 0 0 0 0 0 0 0 0 0 0 0
0 0 0 0 0 0 0 0 0 0 0 0 0 0 0 0 0 0 0 0 0 0 0 0 0 0 -0 -0 -0 0 0 0 0 0 0 0 0 0 -0 0 0 0 -0
0 0 0 0 0 0 0 0 0 0 0 0 0 0 0 0 0 0 0 0 0 0 0 0 0 0 -0 -0 -0 0 0 -0 -0 -0 -0 -0 0 -0 -0 0 -0 -0 0
0 0 0 0 0 0 0 0 0 0 0 0 0 0 0 0 0 0 0 0 0 0 0 0 0 0 0 -0 0 -0 -0 -0 -0 -0 -0 -0 -0 0 0 0 0 0 -0
0 0 0 0 0 0 0 0 0 0 0 0 0 0 0 0 0 0 0 0 0 0 0 0 0 0 -0 -0 -0 0 0 0 0 0 0 0 0 0 0 0 0 0 -0
0 0 0 0 0 0 0 0 0 0 0 0 0 0 0 0 0 0 0 0 0 0 0 0 0 0 -0 -0 -0 -0 0 0 0 0 0 0 0 0 0 0 0 0 0
0 0 0 0 0 0 0 0 0 0 0 0 0 0 0 0 0 0 0 0 0 0 0 0 0 0 0 0 -0 -0 -0 0 0 0 0 0 0 0 0 0 0 0 0
0 0 0 0 0 0 0 0 0 0 0 0 0 0 0 0 0 0 0 0 0 0 0 0 0 0 0 0 -0 -0 -0 -0 0 0 0 0 0 -0 -0 0 0 0 0
0 0 0 0 0 0 0 0 0 0 0 0 0 0 0 0 0 0 0 0 0 0 0 0 0 0 0 0 0 -0 -0 0 0 -0 -0 -0 -0 -0 0 -0 0 -0 0
0 0 0 0 0 0 0 0 0 0 0 0 0 0 0 0 0 0 0 0 0 0 0 0 0 0 0 0 0 0 0 0 0 0 0 -0 -0 -0 0 0 0 -0 -0
0 0 0 0 0 0 0 0 0 0 0 0 0 0 0 0 0 0 0 0 0 0 0 0 0 0 0 0 0 0 0 0 0 0 -0 0 -0 -0 0 0 0 0 -0
Wind_Speed_500mb
29 36 35 35 36 33 37 38 40 40 40 37 41 40 36 42 46 44 33 35 33 35 36 37 30 28 27 16 10 9 9 11 8 6 7 7 5 13 21 29 32 29 39
28 32 34 31 30 31 38 45 44 43 46 40 38 37 38 42 40 44 45 41 34 32 36 37 28 29 25 18 17 11 7 7 14 18 18 21 23 26 22 23 25 34 34
25 29 28 27 28 30 37 42 44 46 43 42 40 42 42 44 51 49 44 41 35 32 32 35 33 33 36 27 26 22 8 11 24 27 30 32 31 29 31 36 31 15 26
23 25 26 27 25 29 30 35 43 43 47 48 45 46 43 38 45 48 41 37 37 33 27 32 33 32 33 34 25 34 7 12 29 36 40 42 36 32 31 29 29 29 28
19 23 25 27 27 21 28 33 39 42 44 47 49 45 57 42 45 48 46 37 42 33 36 28 37 33 33 30 31 33 21 20 30 46 47 41 34 30 31 28 35 34 32
17 21 22 23 25 21 26 31 36 40 44 49 51 52 52 50 42 44 49 40 37 37 36 29 29 35 31 35 28 24 22 33 33 32 32 27 29 27 27 29 32 29 30
13 19 19 21 23 21 24 28 35 38 39 45 52 52 49 48 44 47 44 40 39 38 36 32 31 29 27 26 28 29 27 30 25 20 20 15 21 21 22 20 15 14 18
9 14 15 16 19 20 23 23 31 39 38 40 42 47 52 56 49 41 40 41 39 33 33 32 30 28 24 24 22 26 27 27 24 17 12 13 14 13 15 15 5 8 14
5 8 10 12 14 16 18 20 22 26 34 39 40 43 45 50 53 49 46 34 37 36 39 28 28 24 23 22 18 19 24 25 22 20 18 17 15 10 12 10 8 13 12
4 4 6 8 13 18 20 19 19 25 33 37 39 42 46 50 49 48 45 40 34 36 36 36 33 20 22 21 17 15 19 23 21 20 17 11 11 11 13 13 9 4 5
3 2 3 6 12 19 21 22 21 24 32 34 35 39 45 53 46 44 46 33 40 37 34 35 30 26 22 19 15 12 16 17 18 16 15 9 7 7 11 13 10 9 9
6 5 6 9 14 21 25 25 25 24 28 33 36 35 40 47 46 39 42 40 39 39 39 30 30 24 20 19 17 15 13 14 15 14 11 11 6 10 11 9 8 9 10
9 9 10 13 13 20 25 27 24 24 27 31 35 36 39 42 46 36 34 35 38 37 32 35 29 30 22 21 18 14 12 11 9 8 12 15 14 17 15 12 12 12 13
8 9 11 12 12 17 25 28 27 25 27 28 38 39 32 31 38 41 36 32 32 36 33 27 24 30 27 27 21 15 13 13 13 10 10 13 17 19 19 20 20 20 20
6 8 7 8 12 13 24 25 27 25 22 25 30 34 32 32 36 42 35 30 30 30 28 26 23 25 28 20 24 24 20 13 11 9 9 10 10 10 12 14 14 14 15
4 3 4 6 12 16 23 20 22 24 24 23 26 28 31 36 34 35 29 23 24 26 25 29 32 30 29 28 24 18 15 17 10 7 7 8 11 16 15 12 10 11 13
7 1 3 7 15 19 21 22 24 25 27 29 24 24 31 33 32 26 24 26 25 24 25 23 28 30 32 30 29 24 10 13 13 15 7 6 12 12 6 8 6 8 6
2 4 4 11 17 18 21 23 25 26 28 29 26 24 29 29 30 21 23 26 23 22 25 26 26 24 27 30 28 25 20 11 9 8 8 9 5 3 3 4 3 7 9
4 3 9 12 22 19 18 21 23 25 23 24 25 25 25 27 25 24 29 26 22 21 23 25 26 25 24 26 27 24 16 15 15 6 5 2 2 3 6 4 7 6 11
8 9 11 12 19 16 17 20 23 23 23 23 27 25 19 25 24 26 24 25 24 24 26 29 31 27 25 24 24 23 21 17 14 11 13 8 8 8 10 6 8 8 9
14 12 13 11 18 13 14 25 25 27 26 25 26 22 23 23 24 27 23 24 27 27 25 24 24 33 23 23 23 21 21 15 16 13 9 16 10 8 11 14 16 11 10
18 17 11 12 13 16 20 25 29 27 25 26 24 22 24 25 26 24 23 24 24 30 36 28 21 24 29 26 25 23 20 16 15 16 10 17 5 10 9 10 11 14 14
13 11 16 21 20 16 20 25 31 23 25 23 20 22 26 28 25 24 25 20 26 33 30 24 20 22 28 33 29 25 19 15 15 16 12 13 14 15 13 12 13 13 15
16 16 18 17 19 22 25 23 23 27 25 19 18 24 28 30 24 23 19 26 33 37 35 26 22 26 30 32 27 19 19 15 15 17 10 14 13 7 3 8 11 12 13
13 17 23 25 21 20 22 18 20 20 20 19 15 21 26 27 23 24 29 31 36 40 37 32 31 31 30 25 18 17 17 14 15 11 16 18 14 7 10 4 6 13 18
7 9 11 10 9 9 13 19 21 21 19 16 18 23 26 27 27 29 31 34 39 40 37 32 31 29 27 23 16 16 17 17 16 15 16 15 16 8 10 2 8 12 17
Wind_Direction_500mb
17 16 16 19 32 33 17 16 20 16 12 9 15 16 17 14 13 16 8 6 5 10 10 13 12 7 3 359 329 288 258 240 200 138 182 156 178 159 163 158 159 124 163
14 11 15 27 33 24 26 28 27 19 21 18 16 15 20 12 17 22 20 15 13 13 7 9 20 14 7 8 359 325 252 220 187 186 145 137 132 124 126 124 120 109 124
10 12 21 29 29 27 28 31 31 26 21 20 23 24 22 23 21 16 22 18 17 14 14 22 12 15 24 16 19 8 338 192 186 184 155 141 126 120 113 113 107 118 107
21 29 25 23 23 22 23 30 26 26 28 37 36 26 22 21 18 18 15 22 23 24 25 28 22 22 25 25 35 24 30 155 180 174 153 137 130 124 115 110 99 104 102
28 22 20 22 16 21 34 35 25 27 29 27 25 24 27 22 20 20 20 28 27 20 25 38 35 33 34 33 49 49 80 120 152 146 134 127 117 123 117 114 113 106 99
21 16 16 21 26 49 43 36 28 24 26 27 24 24 25 25 23 18 22 24 21 26 27 25 34 34 42 41 49 64 72 103 107 122 119 115 116 119 119 118 120 115 107
9 7 21 32 43 46 44 37 31 23 24 24 23 24 22 22 14 18 20 21 26 29 30 33 36 40 44 49 48 60 69 84 95 110 117 126 139 133 132 130 138 135 136
4 15 32 42 44 38 32 32 32 25 23 23 22 22 22 18 17 17 18 21 27 31 28 26 31 33 48 58 57 70 76 79 81 79 107 119 128 136 151 161 176 205 146
341 7 26 29 26 24 20 18 23 20 22 15 13 10 15 25 13 17 18 22 27 26 27 25 22 38 39 53 58 69 71 86 77 85 95 110 126 131 154 155 162 167 161
291 346 9 30 35 24 16 13 12 8 5 5 10 14 15 17 16 10 15 22 22 27 29 32 26 45 41 45 62 65 74 68 64 59 61 89 122 138 149 150 144 132 159
250 304 25 9 2 356 359 360 4 0 2 6 6 15 17 15 11 10 11 22 25 22 24 22 30 37 40 47 59 67 79 67 57 51 47 54 92 137 171 196 198 212 208
241 260 283 323 329 344 346 338 347 346 350 3 3 12 16 24 17 13 12 17 21 15 19 16 24 39 44 48 55 61 60 55 47 38 33 51 98 151 151 153 173 194 210
255 261 284 304 312 338 343 346 340 335 336 354 3 8 6 11 15 22 18 14 15 17 12 30 25 34 47 49 51 55 46 44 61 83 91 55 86 112 117 116 126 124 115
275 276 280 304 304 335 341 347 351 348 343 349 355 358 359 3 5 10 15 18 13 19 16 16 31 28 40 39 41 42 50 57 66 69 49 61 86 97 98 105 107 107 108
278 286 290 326 326 323 337 344 349 351 356 357 357 360 360 357 357 359 2 13 11 10 11 27 23 28 35 35 35 35 38 43 44 44 58 78 107 107 112 118 114 111 104
354 10 5 1 346 328 333 341 352 356 354 357 359 2 6 359 347 354 4 10 12 9 12 24 31 28 26 25 25 23 39 38 42 45 59 94 118 122 117 117 121 125 112
313 229 10 6 349 347 335 344 349 347 346 344 335 348 354 357 0 6 15 16 11 11 16 18 17 20 21 16 14 16 35 28 30 33 55 113 150 161 133 89 120 149 120
16 146 12 358 343 336 345 346 343 340 340 342 338 333 349 2 359 5 9 2 1 1 7 8 5 5 3 12 9 17 22 15 359 28 22 62 91 158 152 127 141 154 137
91 328 320 331 352 355 341 333 334 338 336 336 336 338 337 359 358 356 360 3 355 4 2 354 351 348 350 349 0 2 7 359 359 335 304 279 256 296 308 297 206 177 164
270 309 287 309 338 357 4 4 359 350 345 342 342 338 336 350 353 356 1 5 2 1 360 357 357 337 331 335 343 350 354 1 346 342 330 276 243 284 253 251 260 199 168
257 285 313 286 310 334 341 353 348 349 347 342 344 340 340 346 350 353 359 6 3 355 344 343 340 357 344 327 326 335 341 338 346 324 314 329 260 242 272 254 245 218 204
251 289 285 286 312 330 340 342 343 337 341 340 346 343 348 346 346 346 340 340 347 345 346 331 327 336 340 340 324 318 322 326 325 319 307 327 256 253 246 236 229 228 215
252 286 297 283 291 312 328 330 332 335 337 336 336 341 348 344 336 337 334 338 337 341 338 333 322 325 326 325 320 313 305 316 311 320 306 302 267 254 240 223 230 241 207
246 284 306 310 288 291 305 315 330 336 342 338 323 333 339 341 336 333 336 335 337 340 338 336 329 327 328 326 323 304 301 309 321 315 302 300 296 307 273 221 218 217 200
247 282 305 307 303 298 312 324 333 337 340 342 337 340 338 341 338 332 331 334 338 340 338 335 333 334 336 339 331 316 304 303 311 311 304 295 252 278 327 176 211 193 187
356 340 337 340 341 345 341 337 335 335 336 335 335 337 340 339 336 333 335 336 338 339 337 334 332 333 336 334 328 319 310 299 295 300 306 309 236 287 290 141 257 228 210
Wind_Speed_850mb
29 36 35 35 36 33 37 38 40 40 40 37 41 40 36 42 46 44 33 35 33 35 36 37 30 28 27 16 10 9 9 11 8 6 7 7 5 13 21 29 32 29 39
28 32 34 31 30 31 38 45 44 43 46 40 38 37 38 42 40 44 45 41 34 32 36 37 28 29 25 18 17 11 7 7 14 18 18 21 23 26 22 23 25 34 34
25 29 28 27 28 30 37 42 44 46 43 42 40 42 42 44 51 49 44 41 35 32 32 35 33 33 36 27 26 22 8 11 24 27 30 32 31 29 31 36 31 15 26
23 25 26 27 25 29 30 35 43 43 47 48 45 46 43 38 45 48 41 37 37 33 27 32 33 32 33 34 25 34 7 12 29 36 40 42 36 32 31 29 29 29 28
19 23 25 27 27 21 28 33 39 42 44 47 49 45 57 42 45 48 46 37 42 33 36 28 37 33 33 30 31 33 21 20 30 46 47 41 34 30 31 28 35 34 32
17 21 22 23 25 21 26 31 36 40 44 49 51 52 52 50 42 44 49 40 37 37 36 29 29 35 31 35 28 24 22 33 33 32 32 27 29 27 27 29 32 29 30
13 19 19 21 23 21 24 28 35 38 39 45 52 52 49 48 44 47 44 40 39 38 36 32 31 29 27 26 28 29 27 30 25 20 20 15 21 21 22 20 15 14 18
9 14 15 16 19 20 23 23 31 39 38 40 42 47 52 56 49 41 40 41 39 33 33 32 30 28 24 24 22 26 27 27 24 17 12 13 14 13 15 15 5 8 14
5 8 10 12 14 16 18 20 22 26 34 39 40 43 45 50 53 49 46 34 37 36 39 28 28 24 23 22 18 19 24 25 22 20 18 17 15 10 12 10 8 13 12
4 4 6 8 13 18 20 19 19 25 33 37 39 42 46 50 49 48 45 40 34 36 36 36 33 20 22 21 17 15 19 23 21 20 17 11 11 11 13 13 9 4 5
3 2 3 6 12 19 21 22 21 24 32 34 35 39 45 53 46 44 46 33 40 37 34 35 30 26 22 19 15 12 16 17 18 16 15 9 7 7 11 13 10 9 9
6 5 6 9 14 21 25 25 25 24 28 33 36 35 40 47 46 39 42 40 39 39 39 30 30 24 20 19 17 15 13 14 15 14 11 11 6 10 11 9 8 9 10
9 9 10 13 13 20 25 27 24 24 27 31 35 36 39 42 46 36 34 35 38 37 32 35 29 30 22 21 18 14 12 11 9 8 12 15 14 17 15 12 12 12 13
8 9 11 12 12 17 25 28 27 25 27 28 38 39 32 31 38 41 36 32 32 36 33 27 24 30 27 27 21 15 13 13 13 10 10 13 17 19 19 20 20 20 20
6 8 7 8 12 13 24 25 27 25 22 25 30 34 32 32 36 42 35 30 30 30 28 26 23 25 28 20 24 24 20 13 11 9 9 10 10 10 12 14 14 14 15
4 3 4 6 12 16 23 20 22 24 24 23 26 28 31 36 34 35 29 23 24 26 25 29 32 30 29 28 24 18 15 17 10 7 7 8 11 16 15 12 10 11 13
7 1 3 7 15 19 21 22 24 25 27 29 24 24 31 33 32 26 24 26 25 24 25 23 28 30 32 30 29 24 10 13 13 15 7 6 12 12 6 8 6 8 6
2 4 4 11 17 18 21 23 25 26 28 29 26 24 29 29 30 21 23 26 23 22 25 26 26 24 27 30 28 25 20 11 9 8 8 9 5 3 3 4 3 7 9
4 3 9 12 22 19 18 21 23 25 23 24 25 25 25 27 25 24 29 26 22 21 23 25 26 25 24 26 27 24 16 15 15 6 5 2 2 3 6 4 7 6 11
8 9 11 12 19 16 17 20 23 23 23 23 27 25 19 25 24 26 24 25 24 24 26 29 31 27 25 24 24 23 21 17 14 11 13 8 8 8 10 6 8 8 9
14 12 13 11 18 13 14 25 25 27 26 25 26 22 23 23 24 27 23 24 27 27 25 24 24 33 23 23 23 21 21 15 16 13 9 16 10 8 11 14 16 11 10
18 17 11 12 13 16 20 25 29 27 25 26 24 22 24 25 26 24 23 24 24 30 36 28 21 24 29 26 25 23 20 16 15 16 10 17 5 10 9 10 11 14 14
13 11 16 21 20 16 20 25 31 23 25 23 20 22 26 28 25 24 25 20 26 33 30 24 20 22 28 33 29 25 19 15 15 16 12 13 14 15 13 12 13 13 15
16 16 18 17 19 22 25 23 23 27 25 19 18 24 28 30 24 23 19 26 33 37 35 26 22 26 30 32 27 19 19 15 15 17 10 14 13 7 3 8 11 12 13
13 17 23 25 21 20 22 18 20 20 20 19 15 21 26 27 23 24 29 31 36 40 37 32 31 31 30 25 18 17 17 14 15 11 16 18 14 7 10 4 6 13 18
7 9 11 10 9 9 13 19 21 21 19 16 18 23 26 27 27 29 31 34 39 40 37 32 31 29 27 23 16 16 17 17 16 15 16 15 16 8 10 2 8 12 17
Wind_Direction_850mb
17 16 16 19 32 33 17 16 20 16 12 9 15 16 17 14 13 16 8 6 5 10 10 13 12 7 3 359 329 288 258 240 200 138 182 156 178 159 163 158 159 124 163
14 11 15 27 33 24 26 28 27 19 21 18 16 15 20 12 17 22 20 15 13 13 7 9 20 14 7 8 359 325 252 220 187 186 145 137 132 124 126 124 120 109 124
10 12 21 29 29 27 28 31 31 26 21 20 23 24 22 23 21 16 22 18 17 14 14 22 12 15 24 16 19 8 338 192 186 184 155 141 126 120 113 113 107 118 107
21 29 25 23 23 22 23 30 26 26 28 37 36 26 22 21 18 18 15 22 23 24 25 28 22 22 25 25 35 24 30 155 180 174 153 137 130 124 115 110 99 104 102
28 22 20 22 16 21 34 35 25 27 29 27 25 24 27 22 20 20 20 28 27 20 25 38 35 33 34 33 49 49 80 120 152 146 134 127 117 123 117 114 113 106 99
21 16 16 21 26 49 43 36 28 24 26 27 24 24 25 25 23 18 22 24 21 26 27 25 34 34 42 41 49 64 72 103 107 122 119 115 116 119 119 118 120 115 107
9 7 21 32 43 46 44 37 31 23 24 24 23 24 22 22 14 18 20 21 26 29 30 33 36 40 44 49 48 60 69 84 95 110 117 126 139 133 132 130 138 135 136
4 15 32 42 44 38 32 32 32 25 23 23 22 22 22 18 17 17 18 21 27 31 28 26 31 33 48 58 57 70 76 79 81 79 107 119 128 136 151 161 176 205 146
341 7 26 29 26 24 20 18 23 20 22 15 13 10 15 25 13 17 18 22 27 26 27 25 22 38 39 53 58 69 71 86 77 85 95 110 126 131 154 155 162 167 161
291 346 9 30 35 24 16 13 12 8 5 5 10 14 15 17 16 10 15 22 22 27 29 32 26 45 41 45 62 65 74 68 64 59 61 89 122 138 149 150 144 132 159
250 304 25 9 2 356 359 360 4 0 2 6 6 15 17 15 11 10 11 22 25 22 24 22 30 37 40 47 59 67 79 67 57 51 47 54 92 137 171 196 198 212 208
241 260 283 323 329 344 346 338 347 346 350 3 3 12 16 24 17 13 12 17 21 15 19 16 24 39 44 48 55 61 60 55 47 38 33 51 98 151 151 153 173 194 210
255 261 284 304 312 338 343 346 340 335 336 354 3 8 6 11 15 22 18 14 15 17 12 30 25 34 47 49 51 55 46 44 61 83 91 55 86 112 117 116 126 124 115
275 276 280 304 304 335 341 347 351 348 343 349 355 358 359 3 5 10 15 18 13 19 16 16 31 28 40 39 41 42 50 57 66 69 49 61 86 97 98 105 107 107 108
278 286 290 326 326 323 337 344 349 351 356 357 357 360 360 357 357 359 2 13 11 10 11 27 23 28 35 35 35 35 38 43 44 44 58 78 107 107 112 118 114 111 104
354 10 5 1 346 328 333 341 352 356 354 357 359 2 6 359 347 354 4 10 12 9 12 24 31 28 26 25 25 23 39 38 42 45 59 94 118 122 117 117 121 125 112
313 229 10 6 349 347 335 344 349 347 346 344 335 348 354 357 0 6 15 16 11 11 16 18 17 20 21 16 14 16 35 28 30 33 55 113 150 161 133 89 120 149 120
16 146 12 358 343 336 345 346 343 340 340 342 338 333 349 2 359 5 9 2 1 1 7 8 5 5 3 12 9 17 22 15 359 28 22 62 91 158 152 127 141 154 137
91 328 320 331 352 355 341 333 334 338 336 336 336 338 337 359 358 356 360 3 355 4 2 354 351 348 350 349 0 2 7 359 359 335 304 279 256 296 308 297 206 177 164
270 309 287 309 338 357 4 4 359 350 345 342 342 338 336 350 353 356 1 5 2 1 360 357 357 337 331 335 343 350 354 1 346 342 330 276 243 284 253 251 260 199 168
257 285 313 286 310 334 341 353 348 349 347 342 344 340 340 346 350 353 359 6 3 355 344 343 340 357 344 327 326 335 341 338 346 324 314 329 260 242 272 254 245 218 204
251 289 285 286 312 330 340 342 343 337 341 340 346 343 348 346 346 346 340 340 347 345 346 331 327 336 340 340 324 318 322 326 325 319 307 327 256 253 246 236 229 228 215
252 286 297 283 291 312 328 330 332 335 337 336 336 341 348 344 336 337 334 338 337 341 338 333 322 325 326 325 320 313 305 316 311 320 306 302 267 254 240 223 230 241 207
246 284 306 310 288 291 305 315 330 336 342 338 323 333 339 341 336 333 336 335 337 340 338 336 329 327 328 326 323 304 301 309 321 315 302 300 296 307 273 221 218 217 200
247 282 305 307 303 298 312 324 333 337 340 342 337 340 338 341 338 332 331 334 338 340 338 335 333 334 336 339 331 316 304 303 311 311 304 295 252 278 327 176 211 193 187
356 340 337 340 341 345 341 337 335 335 336 335 335 337 340 339 336 333 335 336 338 339 337 334 332 333 336 334 328 319 310 299 295 300 306 309 236 287 290 141 257 228 210